SNUGLITE 2
1 52899U 22065F   25361.63490278  .00001665  00000-0  32757-3 0  9999
2 52899  98.1937 142.0849 0007220 194.2231 165.8769 14.63879104185899
UmKA 1 (RS40S)
1 57172U 23091G   25361.83476172  .00008215  00000-0  40200-3 0  9997
2 57172  97.5321  56.2340 0013478   3.3718 356.7604 15.18374017137982
CubeBel-2 (EU11S)
1 57175U 23091K   25361.82040406  .00015801  00000-0  64518-3 0  9993
2 57175  97.5319  58.8439 0010886   6.7816 353.3566 15.24433113138155
RS-38S
1 57189U 23091Z   25361.88323171  .00018876  00000-0  65455-3 0  9993
2 57189  97.5343  63.4882 0007462 328.7627  31.3169 15.29835045138443
SONATE-2
1 59112U 24043Q   25361.86859321  .00034946  00000-0  71691-3 0  9993
2 59112  97.5336 138.6939 0009337 109.3989 250.8270 15.45920488101319
MO-122
1 60209U 24125G   25361.53917727  .00039438  00000-0  77132-3 0  9999
2 60209  97.2508 211.9302 0015331 124.8555 235.4139 15.47202916 82892
GRBBeta
1 60237U 24128C   25361.70220601  .00006011  00000-0  42287-3 0  9994
2 60237  61.9906  97.2064 0055708  99.3884 261.3512 15.04912539 80440
Curium One
1 60242U 24128H   25361.63864561  .00011231  00000-0  69111-3 0  9996
2 60242  61.9796  91.9472 0055398  95.9928 264.7483 15.09175435 80538
ROBUSTA-3A
1 60243U 24128J   25361.78140351  .00010976  00000-0  68877-3 0  9990
2 60243  61.9870  93.0468 0055538  93.5908 267.1540 15.08478628 80538
CatSat
1 60246U 24125J   25361.15499847  .00042833  00000-0  99521-3 0  9995
2 60246  97.2297 208.3933 0034406  93.4021 267.1163 15.41590761 80744
HYPERVIEW-1G (RS66S)
1 61772U 24199AP  25361.86458909  .00056307  00000-0  10304-2 0  9995
2 61772  97.3199 231.5012 0009178 173.0960 187.0419 15.49121140107958
AO-123
1 61781U 24199AY  25361.89031725  .00013087  00000-0  42094-3 0  9991
2 61781  97.3240 227.1768 0013710 195.6860 164.3959 15.32279118107666
ZIMSAT 2
1 61783U 24199BA  25361.58198973  .00358820  00000-0  17952-2 0  9999
2 61783  97.3047 235.3597 0006529 129.8237 230.3607 15.80833029111345
HADES-R (SO-124)
1 62690U 25009CK  25361.18704715  .00235692  00000-0  24247-2 0  9997
2 62690  97.3842  84.4149 0001534 286.9620  73.1471 15.64108958 53035
HYDRA-T
1 62692U 25009CM  25361.20873944  .00264330  00000-0  24365-2 0  9995
2 62692  97.3827  84.6897 0002033 289.7716  70.3325 15.66792493 53058
JINJUSat 1B
1 63210U 25052A   25361.66151306  .00021302  00000-0  80052-3 0  9997
2 63210  97.4192 253.7288 0003941   8.0632 352.0669 15.27185240 43864
NUSHSAT 1
1 63211U 25052B   25361.64618483  .00024609  00000-0  89266-3 0  9999
2 63211  97.4173 253.8563 0004229  12.2240 347.9102 15.28320805 43878
TEVEL2-4
1 63213U 25052D   25361.65377918  .00023318  00000-0  86463-3 0  9999
2 63213  97.4101 253.3839 0003955  31.5985 328.5491 15.27608831 43869
TEVEL2-5
1 63214U 25052E   25361.65998973  .00023018  00000-0  85565-3 0  9999
2 63214  97.4092 253.3761 0003987  31.1696 328.9778 15.27528011 43866
TEVEL2-6
1 63215U 25052F   25361.66775543  .00022742  00000-0  84660-3 0  9995
2 63215  97.4096 253.3716 0004065  30.8699 329.2778 15.27483229 43863
TEVEL2-1
1 63217U 25052H   25361.64815779  .00022319  00000-0  83954-3 0  9996
2 63217  97.4071 253.1505 0004588  39.8522 320.3053 15.27141559 43850
TEVEL2-3
1 63218U 25052J   25361.64713617  .00022414  00000-0  84248-3 0  9998
2 63218  97.4072 253.1556 0004594  40.0861 320.0716 15.27165172 43855
TEVEL2-2
1 63219U 25052K   25361.64891150  .00022596  00000-0  84984-3 0  9996
2 63219  97.4073 253.1515 0004555  40.3122 319.8454 15.27143162 43852
TEVEL2-9
1 63237U 25052AD  25361.16759695  .00020423  00000-0  80454-3 0  9995
2 63237  97.4133 252.3593 0008712  41.9974 318.1930 15.25596541 43747
TEVEL2-7
1 63238U 25052AE  25361.64215475  .00020563  00000-0  81345-3 0  9997
2 63238  97.4138 252.8006 0008714  40.5637 319.6249 15.25455033 43817
TEVEL2-8
1 63239U 25052AF  25361.45124898  .00019298  00000-0  76452-3 0  9991
2 63239  97.4134 252.5956 0008727  41.3615 318.8282 15.25419310 43786
HYDRA-W
1 63490U 25052BL  25361.68836588  .00090833  00000-0  20023-2 0  9997
2 63490  97.4048 255.7044 0010088  34.0786 326.1107 15.43532702 44020
HADES-ICM (SO-125)
1 63492U 25052BN  25359.95031581  .00063987  00000-0  15389-2 0  9995
2 63492  97.4051 253.6281 0010828  40.2298 319.9748 15.41023613 43737
Dragonfly
1 65729U 98067XH  25361.52733395  .00245886  00000-0  14208-2 0  9993
2 65729  51.6250  59.7558 0008324   4.1915 355.9153 15.77317365 15491
RSP-03
1 65732U 98067XL  25361.43792693  .00156013  00000-0  11231-2 0  9999
2 65732  51.6262  61.4259 0006137 344.1369  15.9436 15.72555826 15472
GHS-01
1 65733U 98067XM  25361.50781520  .00325699  00000-0  15063-2 0  9990
2 65733  51.6274  58.8829 0009520   8.1386 351.9769 15.81984355 15514
BOTAN
1 65942U 98067XP  25361.21907921  .00122237  00000-0  11596-2 0  9995
2 65942  51.6275  65.9806 0003686 351.9823   8.1114 15.66006349 12134
CEVROSAT1
1 66309U 25248S   25360.94879227  .00019042  00000-0  92173-3 0  9990
2 66309  45.4054 323.8016 0002237 163.4526 196.6433 15.18366230  8311
BEE-1000
1 66650U 25274A   25361.77828832  .00001812  00000-0  18540-3 0  9998
2 66650  97.7406 288.6911 0011313 196.5154 163.5698 14.91713563  4645
SPIRONE
1 66657U 25274H   25361.22565759  .00003941  00000-0  38856-3 0  9998
2 66657  97.7401 288.1839 0011001 220.5482 139.4919 14.92540543  4563
K-HERO
1 66660U 25274L   25361.75143527  .00003827  00000-0  37258-3 0  9993
2 66660  97.7405 288.7273 0012836 224.7233 135.2952 14.93045491  4649
SNUGLITE-III DURI
1 66661U 25274M   25361.74848291  .00003488  00000-0  33895-3 0  9999
2 66661  97.7402 288.7302 0013505 226.2194 133.7909 14.93175813  4644
SilverSat
1 66909U 98067XV  25361.46540558  .00076025  00000-0  11635-2 0  9992
2 66909  51.6313  69.1235 0003945 319.4612  40.6084 15.53674289  3908
